Time,TemperatureF,DewpointF,PressureIn,WindDirection,WindDirectionDegrees,WindSpeedMPH,WindSpeedGustMPH,Humidity,HourlyPrecipIn,Conditions,Clouds,dailyrainin,SoftwareType,DateUTC
2013-03-08 00:00:00,33.0,27.5,30.30,WNW,297,3.0,8.0,80,0.00,,---,0.00,VWS V13.01,2013-03-08 05:00:00,
2013-03-08 00:02:00,33.0,27.5,30.30,NW,324,1.0,3.0,80,0.00,,---,0.00,VWS V13.01,2013-03-08 05:02:00,
2013-03-08 00:07:00,33.0,27.5,30.30,NW,313,3.0,5.0,80,0.00,,---,0.00,VWS V13.01,2013-03-08 05:07:00,
2013-03-08 00:12:00,33.0,27.5,30.30,NW,315,3.0,5.0,80,0.00,,---,0.00,VWS V13.01,2013-03-08 05:12:00,
2013-03-08 00:17:00,33.0,27.5,30.30,NW,311,0.0,5.0,80,0.00,,---,0.00,VWS V13.01,2013-03-08 05:17:00,
2013-03-08 00:22:00,33.0,27.5,30.30,NW,318,1.0,6.0,80,0.00,,---,0.00,VWS V13.01,2013-03-08 05:22:00,
2013-03-08 00:27:00,33.0,27.5,30.30,NW,318,0.0,6.0,80,0.00,,---,0.00,VWS V13.01,2013-03-08 05:27:00,
2013-03-08 00:32:00,33.0,27.5,30.29,NW,315,3.0,5.0,80,0.00,,---,0.00,VWS V13.01,2013-03-08 05:32:00,
2013-03-08 00:37:00,33.0,27.2,30.29,WNW,295,2.0,6.0,79,0.00,,---,0.00,VWS V13.01,2013-03-08 05:37:00,
2013-03-08 00:42:00,33.0,27.2,30.29,NW,304,2.0,6.0,79,0.00,,---,0.00,VWS V13.01,2013-03-08 05:42:00,
2013-03-08 00:47:00,33.0,27.2,30.29,NNW,332,4.0,6.0,79,0.00,,---,0.00,VWS V13.01,2013-03-08 05:47:00,
2013-03-08 00:52:00,33.0,27.2,30.29,West,281,3.0,6.0,79,0.00,,---,0.00,VWS V13.01,2013-03-08 05:52:00,
2013-03-08 00:57:00,33.0,27.2,30.29,NW,322,1.0,6.0,79,0.00,,---,0.00,VWS V13.01,2013-03-08 05:57:00,
2013-03-08 01:02:00,33.0,27.2,30.29,WNW,296,2.0,5.0,79,0.00,,---,0.00,VWS V13.01,2013-03-08 06:02:00,
2013-03-08 01:07:00,33.0,27.2,30.29,NW,304,1.0,5.0,79,0.00,,---,0.00,VWS V13.01,2013-03-08 06:07:00,
2013-03-08 01:12:00,33.0,26.9,30.29,NNW,336,3.0,7.0,78,0.00,,---,0.00,VWS V13.01,2013-03-08 06:12:00,
2013-03-08 01:17:00,33.0,26.9,30.29,NW,306,2.0,9.0,78,0.00,,---,0.00,VWS V13.01,2013-03-08 06:17:00,
2013-03-08 01:22:00,33.0,26.9,30.29,WNW,297,6.0,9.0,78,0.00,,---,0.00,VWS V13.01,2013-03-08 06:22:00,
2013-03-08 01:28:00,33.1,26.7,30.30,West,275,3.0,9.0,77,0.00,,---,0.00,VWS V13.01,2013-03-08 06:28:00,
2013-03-08 01:32:00,33.0,26.6,30.30,WNW,298,8.0,10.0,77,0.00,,---,0.00,VWS V13.01,2013-03-08 06:32:00,
2013-03-08 01:37:00,33.0,26.6,30.29,North,350,5.0,11.0,77,0.00,,---,0.00,VWS V13.01,2013-03-08 06:37:00,
2013-03-08 01:42:00,33.0,26.6,30.29,WNW,295,10.0,13.0,77,0.00,,---,0.00,VWS V13.01,2013-03-08 06:42:00,
2013-03-08 01:47:00,33.0,26.6,30.29,WNW,298,2.0,13.0,77,0.00,,---,0.00,VWS V13.01,2013-03-08 06:47:00,
2013-03-08 01:52:00,32.9,26.5,30.28,NW,317,2.0,13.0,77,0.00,,---,0.00,VWS V13.01,2013-03-08 06:52:00,
2013-03-08 01:57:00,32.8,26.4,30.29,NW,315,5.0,13.0,77,0.00,,---,0.00,VWS V13.01,2013-03-08 06:57:00,
2013-03-08 02:02:00,32.8,26.4,30.29,NNW,331,5.0,6.0,77,0.00,,---,0.00,VWS V13.01,2013-03-08 07:02:00,
2013-03-08 02:07:00,32.7,26.3,30.29,NNW,341,4.0,6.0,77,0.00,,---,0.00,VWS V13.01,2013-03-08 07:07:00,
2013-03-08 02:13:00,32.7,26.6,30.29,NW,304,4.0,10.0,78,0.00,,---,0.00,VWS V13.01,2013-03-08 07:13:00,
2013-03-08 02:18:00,32.6,26.5,30.29,NW,308,4.0,10.0,78,0.00,,---,0.00,VWS V13.01,2013-03-08 07:18:00,
2013-03-08 02:23:00,32.5,26.7,30.29,NW,304,4.0,10.0,79,0.00,,---,0.00,VWS V13.01,2013-03-08 07:23:00,
2013-03-08 02:28:00,32.5,26.7,30.29,NW,305,2.0,10.0,79,0.00,,---,0.00,VWS V13.01,2013-03-08 07:28:00,
2013-03-08 02:33:00,32.4,26.6,30.29,WNW,296,5.0,7.0,79,0.00,,---,0.00,VWS V13.01,2013-03-08 07:33:00,
2013-03-08 02:38:00,32.3,26.5,30.30,WNW,286,3.0,9.0,79,0.00,,---,0.00,VWS V13.01,2013-03-08 07:38:00,
2013-03-08 02:43:00,32.3,26.8,30.29,NW,323,2.0,9.0,80,0.00,,---,0.00,VWS V13.01,2013-03-08 07:43:00,
2013-03-08 02:48:00,32.3,26.8,30.29,WNW,294,5.0,9.0,80,0.00,,---,0.00,VWS V13.01,2013-03-08 07:48:00,
2013-03-08 02:53:00,32.2,26.7,30.29,West,279,6.0,9.0,80,0.00,,---,0.00,VWS V13.01,2013-03-08 07:53:00,
2013-03-08 02:58:00,32.1,26.6,30.29,NW,315,3.0,9.0,80,0.00,,---,0.00,VWS V13.01,2013-03-08 07:58:00,
2013-03-08 03:03:00,32.1,26.3,30.29,NW,326,3.0,9.0,79,0.00,,---,0.00,VWS V13.01,2013-03-08 08:03:00,
2013-03-08 03:08:00,32.1,26.6,30.29,NW,318,2.0,9.0,80,0.00,,---,0.00,VWS V13.01,2013-03-08 08:08:00,
2013-03-08 03:13:00,32.0,26.5,30.29,WNW,294,0.0,9.0,80,0.00,,---,0.00,VWS V13.01,2013-03-08 08:13:00,
2013-03-08 03:18:00,32.0,26.2,30.29,WSW,245,1.0,9.0,79,0.00,,---,0.00,VWS V13.01,2013-03-08 08:18:00,
2013-03-08 03:23:00,32.0,26.5,30.29,WNW,302,7.0,9.0,80,0.00,,---,0.00,VWS V13.01,2013-03-08 08:23:00,
2013-03-08 03:28:00,32.0,26.2,30.29,WNW,296,3.0,13.0,79,0.00,,---,0.00,VWS V13.01,2013-03-08 08:28:00,
2013-03-08 03:33:00,31.9,26.1,30.30,NW,306,7.0,9.0,79,0.00,,---,0.00,VWS V13.01,2013-03-08 08:33:00,
2013-03-08 03:38:00,31.9,26.1,30.30,WNW,296,2.0,11.0,79,0.00,,---,0.00,VWS V13.01,2013-03-08 08:38:00,
2013-03-08 03:43:00,31.9,26.1,30.30,West,281,8.0,11.0,79,0.00,,---,0.00,VWS V13.01,2013-03-08 08:43:00,
2013-03-08 03:48:00,31.8,26.0,30.30,West,274,3.0,11.0,79,0.00,,---,0.00,VWS V13.01,2013-03-08 08:48:00,
2013-03-08 03:53:00,31.7,25.9,30.30,NNW,336,2.0,11.0,79,0.00,,---,0.00,VWS V13.01,2013-03-08 08:53:00,
2013-03-08 03:58:00,31.6,25.9,30.30,NNW,337,8.0,12.0,79,0.00,,---,0.00,VWS V13.01,2013-03-08 08:58:00,
2013-03-08 04:03:00,31.6,25.9,30.31,North,355,8.0,15.0,79,0.00,,---,0.00,VWS V13.01,2013-03-08 09:03:00,
2013-03-08 04:08:00,31.5,25.8,30.31,WNW,294,7.0,15.0,79,0.00,,---,0.00,VWS V13.01,2013-03-08 09:08:00,
2013-03-08 04:13:00,31.5,26.0,30.31,WNW,296,5.0,15.0,80,0.00,,---,0.00,VWS V13.01,2013-03-08 09:13:00,
2013-03-08 04:18:00,31.4,26.0,30.31,WNW,287,5.0,15.0,80,0.00,,---,0.00,VWS V13.01,2013-03-08 09:18:00,
2013-03-08 04:23:00,31.4,26.0,30.31,NW,307,4.0,15.0,80,0.00,,---,0.00,VWS V13.01,2013-03-08 09:23:00,
2013-03-08 04:28:00,31.3,25.9,30.31,NW,315,4.0,15.0,80,0.00,,---,0.00,VWS V13.01,2013-03-08 09:28:00,
2013-03-08 04:33:00,31.2,25.8,30.31,WNW,301,2.0,6.0,80,0.00,,---,0.00,VWS V13.01,2013-03-08 09:33:00,
2013-03-08 04:38:00,31.2,25.8,30.31,WNW,302,2.0,8.0,80,0.00,,---,0.00,VWS V13.01,2013-03-08 09:38:00,
2013-03-08 04:43:00,31.2,26.1,30.31,NW,317,2.0,9.0,81,0.00,,---,0.00,VWS V13.01,2013-03-08 09:43:00,
2013-03-08 04:48:00,31.2,26.1,30.31,WNW,290,5.0,9.0,81,0.00,,---,0.00,VWS V13.01,2013-03-08 09:48:00,
2013-03-08 04:53:00,31.2,26.1,30.31,WNW,292,6.0,11.0,81,0.00,,---,0.00,VWS V13.01,2013-03-08 09:53:00,
2013-03-08 04:58:00,31.1,26.0,30.31,WNW,282,4.0,11.0,81,0.00,,---,0.00,VWS V13.01,2013-03-08 09:58:00,
2013-03-08 05:03:00,31.1,26.0,30.31,West,259,5.0,8.0,81,0.00,,---,0.00,VWS V13.01,2013-03-08 10:03:00,
2013-03-08 05:08:00,31.1,26.0,30.32,WNW,296,4.0,8.0,81,0.00,,---,0.00,VWS V13.01,2013-03-08 10:08:00,
2013-03-08 05:13:00,31.1,26.0,30.32,West,278,1.0,9.0,81,0.00,,---,0.00,VWS V13.01,2013-03-08 10:13:00,
2013-03-08 05:18:00,31.1,26.0,30.32,WNW,302,4.0,9.0,81,0.00,,---,0.00,VWS V13.01,2013-03-08 10:18:00,
2013-03-08 05:23:00,31.1,26.0,30.32,WNW,294,3.0,9.0,81,0.00,,---,0.00,VWS V13.01,2013-03-08 10:23:00,
2013-03-08 05:28:00,31.1,26.0,30.33,WNW,292,7.0,9.0,81,0.00,,---,0.00,VWS V13.01,2013-03-08 10:28:00,
2013-03-08 05:33:00,31.1,26.0,30.33,NW,309,3.0,8.0,81,0.00,,---,0.00,VWS V13.01,2013-03-08 10:33:00,
2013-03-08 05:38:00,31.2,26.1,30.33,NW,319,2.0,8.0,81,0.00,,---,0.00,VWS V13.01,2013-03-08 10:38:00,
2013-03-08 05:43:00,31.1,26.0,30.33,NW,325,4.0,8.0,81,0.00,,---,0.00,VWS V13.01,2013-03-08 10:43:00,
2013-03-08 05:48:00,31.2,26.1,30.34,WNW,298,3.0,10.0,81,0.00,,---,0.00,VWS V13.01,2013-03-08 10:48:00,
2013-03-08 05:53:00,31.2,26.1,30.34,WNW,300,4.0,10.0,81,0.00,,---,0.00,VWS V13.01,2013-03-08 10:53:00,
2013-03-08 05:58:00,31.2,26.1,30.34,NW,312,1.0,13.0,81,0.00,,---,0.00,VWS V13.01,2013-03-08 10:58:00,
2013-03-08 06:03:00,31.3,26.2,30.34,NW,319,1.0,7.0,81,0.00,,---,0.00,VWS V13.01,2013-03-08 11:03:00,
2013-03-08 06:08:00,31.3,26.2,30.34,NW,325,4.0,8.0,81,0.00,,---,0.00,VWS V13.01,2013-03-08 11:08:00,
2013-03-08 06:13:00,31.3,26.2,30.34,WNW,288,4.0,9.0,81,0.00,,---,0.00,VWS V13.01,2013-03-08 11:13:00,
2013-03-08 06:18:00,31.3,26.2,30.34,WNW,287,4.0,10.0,81,0.00,,---,0.00,VWS V13.01,2013-03-08 11:18:00,
2013-03-08 06:23:00,31.3,26.2,30.35,NW,309,3.0,12.0,81,0.00,,---,0.00,VWS V13.01,2013-03-08 11:23:00,
2013-03-08 06:28:00,31.3,26.5,30.35,NW,317,5.0,12.0,82,0.00,,---,0.00,VWS V13.01,2013-03-08 11:28:00,
2013-03-08 06:33:00,31.3,26.5,30.35,NW,315,1.0,8.0,82,0.00,,---,0.00,VWS V13.01,2013-03-08 11:33:00,
2013-03-08 06:38:00,31.3,26.5,30.35,NW,316,4.0,9.0,82,0.00,,---,0.00,VWS V13.01,2013-03-08 11:38:00,
2013-03-08 06:43:00,31.3,26.5,30.35,NNW,342,3.0,10.0,82,0.00,,---,0.00,VWS V13.01,2013-03-08 11:43:00,
2013-03-08 06:48:00,31.3,26.5,30.36,NW,316,2.0,10.0,82,0.00,,---,0.00,VWS V13.01,2013-03-08 11:48:00,
2013-03-08 06:53:00,31.4,26.5,30.36,WNW,298,6.0,10.0,82,0.00,,---,0.00,VWS V13.01,2013-03-08 11:53:00,
2013-03-08 06:58:00,31.4,26.5,30.36,WNW,287,3.0,10.0,82,0.00,,---,0.00,VWS V13.01,2013-03-08 11:58:00,
2013-03-08 07:03:00,31.4,26.5,30.36,WNW,286,4.0,7.0,82,0.00,,---,0.00,VWS V13.01,2013-03-08 12:03:00,
2013-03-08 07:08:00,31.4,26.5,30.36,WNW,299,6.0,8.0,82,0.00,,---,0.00,VWS V13.01,2013-03-08 12:08:00,
2013-03-08 07:13:00,31.4,26.5,30.36,NW,304,1.0,8.0,82,0.00,,---,0.00,VWS V13.01,2013-03-08 12:13:00,
2013-03-08 07:18:00,31.5,26.9,30.36,NNW,336,3.0,8.0,83,0.00,,---,0.00,VWS V13.01,2013-03-08 12:18:00,
2013-03-08 07:23:00,31.5,26.9,30.37,NW,322,7.0,8.0,83,0.00,,---,0.00,VWS V13.01,2013-03-08 12:23:00,
2013-03-08 07:28:00,31.5,26.9,30.36,West,269,4.0,10.0,83,0.00,,---,0.00,VWS V13.01,2013-03-08 12:28:00,
2013-03-08 07:33:00,31.5,26.9,30.36,West,265,5.0,9.0,83,0.00,,---,0.00,VWS V13.01,2013-03-08 12:33:00,
2013-03-08 07:38:00,31.5,26.9,30.37,WSW,238,7.0,9.0,83,0.00,,---,0.00,VWS V13.01,2013-03-08 12:38:00,
2013-03-08 07:43:00,31.4,26.8,30.37,West,271,2.0,10.0,83,0.00,,---,0.00,VWS V13.01,2013-03-08 12:43:00,
2013-03-08 07:48:00,31.4,26.8,30.37,WNW,293,1.0,10.0,83,0.00,,---,0.00,VWS V13.01,2013-03-08 12:48:00,
2013-03-08 07:53:00,31.4,26.8,30.37,NW,313,4.0,10.0,83,0.00,,---,0.00,VWS V13.01,2013-03-08 12:53:00,
2013-03-08 07:58:00,31.4,26.8,30.37,NW,311,5.0,10.0,83,0.00,,---,0.00,VWS V13.01,2013-03-08 12:58:00,
2013-03-08 08:03:00,31.4,26.8,30.37,NNW,344,5.0,7.0,83,0.00,,---,0.00,VWS V13.01,2013-03-08 13:03:00,
2013-03-08 08:08:00,31.4,26.8,30.37,WNW,294,2.0,8.0,83,0.00,,---,0.00,VWS V13.01,2013-03-08 13:08:00,
2013-03-08 08:13:00,31.5,27.2,30.38,NW,309,4.0,9.0,84,0.00,,---,0.00,VWS V13.01,2013-03-08 13:13:00,
2013-03-08 08:18:00,31.5,27.2,30.38,WNW,294,8.0,9.0,84,0.00,,---,0.00,VWS V13.01,2013-03-08 13:18:00,
2013-03-08 08:23:00,31.5,27.2,30.38,NW,308,2.0,9.0,84,0.00,,---,0.00,VWS V13.01,2013-03-08 13:23:00,
2013-03-08 08:28:00,31.5,27.2,30.38,NNW,339,4.0,11.0,84,0.00,,---,0.00,VWS V13.01,2013-03-08 13:28:00,
2013-03-08 08:33:00,31.6,27.3,30.38,NW,311,6.0,8.0,84,0.00,,---,0.00,VWS V13.01,2013-03-08 13:33:00,
2013-03-08 08:38:00,31.7,27.4,30.38,NNW,331,4.0,9.0,84,0.00,,---,0.00,VWS V13.01,2013-03-08 13:38:00,
2013-03-08 08:43:00,31.8,27.2,30.38,NW,308,3.0,9.0,83,0.00,,---,0.00,VWS V13.01,2013-03-08 13:43:00,
2013-03-08 08:48:00,31.9,27.3,30.38,NW,322,3.0,9.0,83,0.00,,---,0.00,VWS V13.01,2013-03-08 13:48:00,
2013-03-08 08:53:00,32.0,27.4,30.39,NW,325,6.0,9.0,83,0.00,,---,0.00,VWS V13.01,2013-03-08 13:53:00,
2013-03-08 08:58:00,32.1,27.5,30.38,WNW,294,2.0,9.0,83,0.00,,---,0.00,VWS V13.01,2013-03-08 13:58:00,
2013-03-08 09:03:00,32.1,27.2,30.39,WNW,302,2.0,10.0,82,0.00,,---,0.00,VWS V13.01,2013-03-08 14:03:00,
2013-03-08 09:08:00,32.1,27.2,30.39,NNW,328,4.0,10.0,82,0.00,,---,0.00,VWS V13.01,2013-03-08 14:08:00,
2013-03-08 09:13:00,32.1,27.5,30.39,West,269,1.0,10.0,83,0.00,,---,0.00,VWS V13.01,2013-03-08 14:13:00,
2013-03-08 09:18:00,32.2,27.3,30.39,NNW,336,6.0,10.0,82,0.00,,---,0.00,VWS V13.01,2013-03-08 14:18:00,
2013-03-08 09:23:00,32.3,27.7,30.39,WNW,286,5.0,11.0,83,0.00,,---,0.00,VWS V13.01,2013-03-08 14:23:00,
2013-03-08 09:28:00,32.5,27.6,30.39,WNW,298,7.0,11.0,82,0.00,,---,0.00,VWS V13.01,2013-03-08 14:28:00,
2013-03-08 09:33:00,32.7,27.8,30.39,NW,306,1.0,6.0,82,0.00,,---,0.00,VWS V13.01,2013-03-08 14:33:00,
2013-03-08 09:38:00,32.9,27.7,30.39,West,261,6.0,12.0,81,0.00,,---,0.00,VWS V13.01,2013-03-08 14:38:00,
2013-03-08 09:43:00,33.1,27.9,30.39,West,267,2.0,12.0,81,0.00,,---,0.00,VWS V13.01,2013-03-08 14:43:00,
2013-03-08 09:48:00,33.4,27.9,30.39,WNW,292,2.0,12.0,80,0.00,,---,0.00,VWS V13.01,2013-03-08 14:48:00,
2013-03-08 09:53:00,33.7,27.9,30.39,NNW,329,4.0,12.0,79,0.00,,---,0.00,VWS V13.01,2013-03-08 14:53:00,
2013-03-08 09:58:00,33.9,28.1,30.39,NNW,340,7.0,12.0,79,0.00,,---,0.00,VWS V13.01,2013-03-08 14:58:00,
2013-03-08 10:03:00,34.0,27.9,30.39,WNW,302,8.0,10.0,78,0.00,,---,0.00,VWS V13.01,2013-03-08 15:03:00,
2013-03-08 10:08:00,33.7,27.6,30.39,NW,307,8.0,12.0,78,0.00,,---,0.00,VWS V13.01,2013-03-08 15:08:00,
2013-03-08 10:13:00,33.6,27.8,30.39,NW,322,8.0,12.0,79,0.00,,---,0.00,VWS V13.01,2013-03-08 15:13:00,
2013-03-08 10:18:00,33.8,28.0,30.39,NW,319,3.0,12.0,79,0.00,,---,0.00,VWS V13.01,2013-03-08 15:18:00,
2013-03-08 10:23:00,34.0,27.9,30.39,WNW,289,7.0,12.0,78,0.00,,---,0.00,VWS V13.01,2013-03-08 15:23:00,
2013-03-08 10:28:00,34.3,28.2,30.39,NNW,337,9.0,12.0,78,0.00,,---,0.00,VWS V13.01,2013-03-08 15:28:00,
2013-03-08 10:33:00,34.3,27.9,30.39,WNW,282,4.0,10.0,77,0.00,,---,0.00,VWS V13.01,2013-03-08 15:33:00,
2013-03-08 10:38:00,34.3,28.2,30.39,West,268,9.0,10.0,78,0.00,,---,0.00,VWS V13.01,2013-03-08 15:38:00,
2013-03-08 10:43:00,34.6,28.5,30.39,NE,36,6.0,11.0,78,0.00,,---,0.00,VWS V13.01,2013-03-08 15:43:00,
2013-03-08 10:48:00,34.6,28.1,30.39,NNW,331,5.0,14.0,77,0.00,,---,0.00,VWS V13.01,2013-03-08 15:48:00,
2013-03-08 10:53:00,34.5,28.0,30.39,NW,313,7.0,14.0,77,0.00,,---,0.00,VWS V13.01,2013-03-08 15:53:00,
2013-03-08 10:58:00,34.3,27.9,30.39,WNW,298,2.0,14.0,77,0.00,,---,0.00,VWS V13.01,2013-03-08 15:58:00,
2013-03-08 11:03:00,34.3,27.9,30.39,NW,310,10.0,13.0,77,0.00,,---,0.00,VWS V13.01,2013-03-08 16:03:00,
2013-03-08 11:08:00,34.2,27.8,30.39,NNW,342,4.0,13.0,77,0.00,,---,0.00,VWS V13.01,2013-03-08 16:08:00,
2013-03-08 11:13:00,34.1,27.7,30.39,WNW,302,3.0,13.0,77,0.00,,---,0.00,VWS V13.01,2013-03-08 16:13:00,
2013-03-08 11:18:00,34.2,28.1,30.39,West,279,0.0,13.0,78,0.00,,---,0.00,VWS V13.01,2013-03-08 16:18:00,
2013-03-08 11:23:00,34.3,27.9,30.39,WNW,288,3.0,13.0,77,0.00,,---,0.00,VWS V13.01,2013-03-08 16:23:00,
2013-03-08 11:28:00,34.4,28.0,30.39,NNW,329,5.0,13.0,77,0.00,,---,0.00,VWS V13.01,2013-03-08 16:28:00,
2013-03-08 11:33:00,34.5,28.0,30.39,NW,313,8.0,11.0,77,0.00,,---,0.00,VWS V13.01,2013-03-08 16:33:00,
2013-03-08 11:38:00,34.6,27.8,30.39,NNE,13,8.0,11.0,76,0.00,,---,0.00,VWS V13.01,2013-03-08 16:38:00,
2013-03-08 11:43:00,34.8,28.0,30.39,NW,305,4.0,11.0,76,0.00,,---,0.00,VWS V13.01,2013-03-08 16:43:00,
2013-03-08 11:48:00,34.9,27.8,30.39,NNW,343,5.0,13.0,75,0.00,,---,0.00,VWS V13.01,2013-03-08 16:48:00,
2013-03-08 11:53:00,35.0,27.9,30.39,WNW,296,8.0,13.0,75,0.00,,---,0.00,VWS V13.01,2013-03-08 16:53:00,
2013-03-08 11:58:00,35.2,28.1,30.39,NNW,338,8.0,13.0,75,0.00,,---,0.00,VWS V13.01,2013-03-08 16:58:00,
2013-03-08 12:03:00,35.4,28.0,30.38,West,269,4.0,9.0,74,0.00,,---,0.00,VWS V13.01,2013-03-08 17:03:00,
2013-03-08 12:08:00,35.4,27.6,30.38,WNW,297,2.0,10.0,73,0.00,,---,0.00,VWS V13.01,2013-03-08 17:08:00,
2013-03-08 12:13:00,35.4,28.0,30.38,WNW,290,6.0,13.0,74,0.00,,---,0.00,VWS V13.01,2013-03-08 17:13:00,
2013-03-08 12:18:00,35.5,28.0,30.38,NNW,333,5.0,13.0,74,0.00,,---,0.00,VWS V13.01,2013-03-08 17:18:00,
2013-03-08 12:23:00,35.5,27.7,30.38,NNE,33,5.0,13.0,73,0.00,,---,0.00,VWS V13.01,2013-03-08 17:23:00,
2013-03-08 12:28:00,35.6,28.1,30.38,NW,315,5.0,13.0,74,0.00,,---,0.00,VWS V13.01,2013-03-08 17:28:00,
2013-03-08 12:33:00,35.7,28.2,30.38,North,5,3.0,9.0,74,0.00,,---,0.00,VWS V13.01,2013-03-08 17:33:00,
2013-03-08 12:38:00,35.7,28.2,30.38,NW,313,5.0,10.0,74,0.00,,---,0.00,VWS V13.01,2013-03-08 17:38:00,
2013-03-08 12:43:00,35.6,27.8,30.38,WNW,298,5.0,14.0,73,0.00,,---,0.00,VWS V13.01,2013-03-08 17:43:00,
2013-03-08 12:48:00,35.5,27.7,30.37,WNW,297,2.0,14.0,73,0.00,,---,0.00,VWS V13.01,2013-03-08 17:48:00,
2013-03-08 12:53:00,35.7,28.2,30.37,NNW,336,5.0,14.0,74,0.00,,---,0.00,VWS V13.01,2013-03-08 17:53:00,
2013-03-08 12:58:00,36.0,28.5,30.37,NW,317,2.0,14.0,74,0.00,,---,0.00,VWS V13.01,2013-03-08 17:58:00,
2013-03-08 13:03:00,36.4,28.2,30.37,WNW,298,7.0,9.0,72,0.00,,---,0.00,VWS V13.01,2013-03-08 18:03:00,
2013-03-08 13:08:00,36.4,28.2,30.37,North,9,7.0,11.0,72,0.00,,---,0.00,VWS V13.01,2013-03-08 18:08:00,
2013-03-08 13:13:00,36.4,27.9,30.36,NW,324,3.0,12.0,71,0.00,,---,0.00,VWS V13.01,2013-03-08 18:13:00,
2013-03-08 13:18:00,36.4,27.9,30.37,NW,325,3.0,12.0,71,0.00,,---,0.00,VWS V13.01,2013-03-08 18:18:00,
2013-03-08 13:23:00,36.6,28.4,30.37,West,275,9.0,13.0,72,0.00,,---,0.00,VWS V13.01,2013-03-08 18:23:00,
2013-03-08 13:28:00,36.6,28.1,30.36,NW,304,9.0,13.0,71,0.00,,---,0.00,VWS V13.01,2013-03-08 18:28:00,
2013-03-08 13:33:00,36.6,28.1,30.36,NNW,330,7.0,10.0,71,0.00,,---,0.00,VWS V13.01,2013-03-08 18:33:00,
2013-03-08 13:38:00,36.6,28.1,30.36,West,281,7.0,11.0,71,0.00,,---,0.00,VWS V13.01,2013-03-08 18:38:00,
2013-03-08 13:43:00,36.7,28.2,30.36,WNW,286,6.0,11.0,71,0.00,,---,0.00,VWS V13.01,2013-03-08 18:43:00,
2013-03-08 13:48:00,36.9,28.4,30.36,WSW,256,3.0,11.0,71,0.00,,---,0.00,VWS V13.01,2013-03-08 18:48:00,
2013-03-08 13:53:00,36.8,28.3,30.36,WNW,287,4.0,11.0,71,0.00,,---,0.00,VWS V13.01,2013-03-08 18:53:00,
2013-03-08 13:58:00,36.9,28.4,30.36,WNW,282,2.0,11.0,71,0.00,,---,0.00,VWS V13.01,2013-03-08 18:58:00,
2013-03-08 14:03:00,37.1,28.2,30.36,West,279,8.0,9.0,70,0.00,,---,0.00,VWS V13.01,2013-03-08 19:03:00,
2013-03-08 14:08:00,37.3,28.4,30.36,WNW,297,3.0,9.0,70,0.00,,---,0.00,VWS V13.01,2013-03-08 19:08:00,
2013-03-08 14:13:00,37.6,28.0,30.36,WNW,296,5.0,10.0,68,0.00,,---,0.00,VWS V13.01,2013-03-08 19:13:00,
2013-03-08 14:18:00,37.7,28.5,30.36,West,273,6.0,12.0,69,0.00,,---,0.00,VWS V13.01,2013-03-08 19:18:00,
2013-03-08 14:23:00,38.0,28.8,30.36,NNW,348,4.0,12.0,69,0.00,,---,0.00,VWS V13.01,2013-03-08 19:23:00,
2013-03-08 14:28:00,38.2,28.6,30.36,NNW,335,6.0,13.0,68,0.00,,---,0.00,VWS V13.01,2013-03-08 19:28:00,
2013-03-08 14:33:00,38.0,28.4,30.36,WSW,254,9.0,10.0,68,0.00,,---,0.00,VWS V13.01,2013-03-08 19:33:00,
2013-03-08 14:38:00,38.0,28.4,30.36,West,259,6.0,15.0,68,0.00,,---,0.00,VWS V13.01,2013-03-08 19:38:00,
2013-03-08 14:43:00,38.1,28.8,30.36,WNW,284,4.0,15.0,69,0.00,,---,0.00,VWS V13.01,2013-03-08 19:43:00,
2013-03-08 14:48:00,38.2,28.9,30.37,WSW,237,9.0,15.0,69,0.00,,---,0.00,VWS V13.01,2013-03-08 19:48:00,
2013-03-08 14:53:00,37.9,28.3,30.37,WNW,286,13.0,15.0,68,0.00,,---,0.00,VWS V13.01,2013-03-08 19:53:00,
2013-03-08 14:58:00,37.7,28.5,30.37,WNW,286,5.0,15.0,69,0.00,,---,0.00,VWS V13.01,2013-03-08 19:58:00,
2013-03-08 15:03:00,37.8,28.9,30.37,West,271,1.0,8.0,70,0.00,,---,0.00,VWS V13.01,2013-03-08 20:03:00,
2013-03-08 15:08:00,38.1,29.2,30.37,West,269,2.0,10.0,70,0.00,,---,0.00,VWS V13.01,2013-03-08 20:08:00,
2013-03-08 15:13:00,39.1,30.2,30.36,WNW,296,5.0,10.0,70,0.00,,---,0.00,VWS V13.01,2013-03-08 20:13:00,
2013-03-08 15:18:00,39.7,30.0,30.37,NW,305,9.0,10.0,68,0.00,,---,0.00,VWS V13.01,2013-03-08 20:18:00,
2013-03-08 15:23:00,40.0,29.6,30.37,NW,314,4.0,14.0,66,0.00,,---,0.00,VWS V13.01,2013-03-08 20:23:00,
2013-03-08 15:28:00,39.8,29.0,30.37,WSW,253,5.0,14.0,65,0.00,,---,0.00,VWS V13.01,2013-03-08 20:28:00,
2013-03-08 15:33:00,39.7,29.3,30.37,West,267,6.0,8.0,66,0.00,,---,0.00,VWS V13.01,2013-03-08 20:33:00,
2013-03-08 15:38:00,40.3,29.5,30.36,WNW,292,8.0,9.0,65,0.00,,---,0.00,VWS V13.01,2013-03-08 20:38:00,
2013-03-08 15:43:00,40.3,29.1,30.37,WNW,295,10.0,14.0,64,0.00,,---,0.00,VWS V13.01,2013-03-08 20:43:00,
2013-03-08 15:48:00,39.8,28.6,30.37,WNW,298,5.0,14.0,64,0.00,,---,0.00,VWS V13.01,2013-03-08 20:48:00,
2013-03-08 15:53:00,39.7,28.5,30.37,WSW,247,4.0,14.0,64,0.00,,---,0.00,VWS V13.01,2013-03-08 20:53:00,
2013-03-08 15:58:00,39.9,28.3,30.37,WSW,250,3.0,14.0,63,0.00,,---,0.00,VWS V13.01,2013-03-08 20:58:00,
2013-03-08 16:03:00,40.3,29.1,30.37,WSW,254,5.0,6.0,64,0.00,,---,0.00,VWS V13.01,2013-03-08 21:03:00,
2013-03-08 16:08:00,40.4,28.0,30.37,WSW,254,6.0,14.0,61,0.00,,---,0.00,VWS V13.01,2013-03-08 21:08:00,
2013-03-08 16:13:00,40.2,28.2,30.37,West,279,4.0,14.0,62,0.00,,---,0.00,VWS V13.01,2013-03-08 21:13:00,
2013-03-08 16:18:00,40.9,28.5,30.37,WNW,296,8.0,14.0,61,0.00,,---,0.00,VWS V13.01,2013-03-08 21:18:00,
2013-03-08 16:23:00,41.0,28.6,30.37,West,281,3.0,14.0,61,0.00,,---,0.00,VWS V13.01,2013-03-08 21:23:00,
2013-03-08 16:28:00,41.1,29.1,30.38,West,264,6.0,14.0,62,0.00,,---,0.00,VWS V13.01,2013-03-08 21:28:00,
2013-03-08 16:33:00,41.1,29.1,30.38,WSW,240,5.0,12.0,62,0.00,,---,0.00,VWS V13.01,2013-03-08 21:33:00,
2013-03-08 16:38:00,41.0,28.6,30.38,WNW,299,4.0,14.0,61,0.00,,---,0.00,VWS V13.01,2013-03-08 21:38:00,
2013-03-08 16:43:00,41.2,29.6,30.38,WSW,242,4.0,14.0,63,0.00,,---,0.00,VWS V13.01,2013-03-08 21:43:00,
2013-03-08 16:48:00,41.5,29.5,30.38,West,260,5.0,14.0,62,0.00,,---,0.00,VWS V13.01,2013-03-08 21:48:00,
2013-03-08 16:53:00,41.6,28.8,30.38,WSW,244,3.0,14.0,60,0.00,,---,0.00,VWS V13.01,2013-03-08 21:53:00,
2013-03-08 16:58:00,41.1,28.7,30.38,WSW,250,12.0,14.0,61,0.00,,---,0.00,VWS V13.01,2013-03-08 21:58:00,
2013-03-08 17:03:00,40.7,28.7,30.39,WSW,250,7.0,15.0,62,0.00,,---,0.00,VWS V13.01,2013-03-08 22:03:00,
2013-03-08 17:08:00,40.5,28.5,30.39,SW,235,8.0,15.0,62,0.00,,---,0.00,VWS V13.01,2013-03-08 22:08:00,
2013-03-08 17:13:00,40.5,28.9,30.39,WSW,246,9.0,15.0,63,0.00,,---,0.00,VWS V13.01,2013-03-08 22:13:00,
2013-03-08 17:18:00,40.6,29.0,30.39,WNW,296,5.0,15.0,63,0.00,,---,0.00,VWS V13.01,2013-03-08 22:18:00,
2013-03-08 17:23:00,40.5,28.5,30.39,WNW,289,8.0,15.0,62,0.00,,---,0.00,VWS V13.01,2013-03-08 22:23:00,
2013-03-08 17:28:00,40.2,28.6,30.40,West,262,5.0,15.0,63,0.00,,---,0.00,VWS V13.01,2013-03-08 22:28:00,
2013-03-08 17:33:00,39.8,28.6,30.39,WSW,241,8.0,13.0,64,0.00,,---,0.00,VWS V13.01,2013-03-08 22:33:00,
2013-03-08 17:38:00,39.4,28.6,30.40,WSW,244,6.0,13.0,65,0.00,,---,0.00,VWS V13.01,2013-03-08 22:38:00,
2013-03-08 17:43:00,38.9,28.1,30.40,West,266,5.0,13.0,65,0.00,,---,0.00,VWS V13.01,2013-03-08 22:43:00,
2013-03-08 17:48:00,38.6,28.2,30.40,WSW,239,3.0,13.0,66,0.00,,---,0.00,VWS V13.01,2013-03-08 22:48:00,
2013-03-08 17:53:00,38.3,28.3,30.40,WSW,246,7.0,13.0,67,0.00,,---,0.00,VWS V13.01,2013-03-08 22:53:00,
2013-03-08 17:58:00,38.0,28.0,30.40,WSW,249,3.0,13.0,67,0.00,,---,0.00,VWS V13.01,2013-03-08 22:58:00,
2013-03-08 18:03:00,37.8,27.8,30.40,WNW,286,5.0,8.0,67,0.00,,---,0.00,VWS V13.01,2013-03-08 23:03:00,
2013-03-08 18:08:00,37.6,28.0,30.40,SW,225,4.0,8.0,68,0.00,,---,0.00,VWS V13.01,2013-03-08 23:08:00,
2013-03-08 18:13:00,37.4,27.8,30.40,West,265,2.0,8.0,68,0.00,,---,0.00,VWS V13.01,2013-03-08 23:13:00,
2013-03-08 18:18:00,37.2,28.0,30.40,West,268,2.0,8.0,69,0.00,,---,0.00,VWS V13.01,2013-03-08 23:18:00,
2013-03-08 18:23:00,37.0,27.8,30.40,WSW,254,2.0,8.0,69,0.00,,---,0.00,VWS V13.01,2013-03-08 23:23:00,
2013-03-08 18:28:00,36.7,27.5,30.40,West,267,6.0,8.0,69,0.00,,---,0.00,VWS V13.01,2013-03-08 23:28:00,
2013-03-08 18:33:00,36.6,27.8,30.40,WSW,252,4.0,8.0,70,0.00,,---,0.00,VWS V13.01,2013-03-08 23:33:00,
2013-03-08 18:38:00,36.4,27.6,30.40,SW,235,3.0,8.0,70,0.00,,---,0.00,VWS V13.01,2013-03-08 23:38:00,
2013-03-08 18:43:00,36.3,27.5,30.41,West,263,1.0,8.0,70,0.00,,---,0.00,VWS V13.01,2013-03-08 23:43:00,
2013-03-08 18:49:00,36.1,27.6,30.41,West,281,1.0,8.0,71,0.00,,---,0.00,VWS V13.01,2013-03-08 23:49:00,
2013-03-08 18:54:00,35.9,27.8,30.41,West,268,3.0,8.0,72,0.00,,---,0.00,VWS V13.01,2013-03-08 23:54:00,
2013-03-08 18:58:00,35.7,27.6,30.41,West,260,1.0,8.0,72,0.00,,---,0.00,VWS V13.01,2013-03-08 23:58:00,
2013-03-08 19:03:00,35.5,27.7,30.41,WSW,243,2.0,3.0,73,0.00,,---,0.00,VWS V13.01,2013-03-09 00:03:00,
2013-03-08 19:08:00,35.2,27.8,30.41,WSW,254,1.0,4.0,74,0.00,,---,0.00,VWS V13.01,2013-03-09 00:08:00,
2013-03-08 19:13:00,35.0,27.6,30.41,WSW,254,1.0,5.0,74,0.00,,---,0.00,VWS V13.01,2013-03-09 00:13:00,
2013-03-08 19:18:00,34.8,27.7,30.41,WSW,248,2.0,5.0,75,0.00,,---,0.00,VWS V13.01,2013-03-09 00:18:00,
2013-03-08 19:23:00,34.6,27.5,30.41,WSW,241,3.0,5.0,75,0.00,,---,0.00,VWS V13.01,2013-03-09 00:23:00,
2013-03-08 19:28:00,34.4,27.6,30.42,WSW,243,4.0,5.0,76,0.00,,---,0.00,VWS V13.01,2013-03-09 00:28:00,
2013-03-08 19:33:00,34.3,27.5,30.42,WSW,252,2.0,4.0,76,0.00,,---,0.00,VWS V13.01,2013-03-09 00:33:00,
2013-03-08 19:38:00,34.1,27.3,30.42,SW,227,3.0,5.0,76,0.00,,---,0.00,VWS V13.01,2013-03-09 00:38:00,
2013-03-08 19:44:00,34.1,27.7,30.42,WSW,241,1.0,5.0,77,0.00,,---,0.00,VWS V13.01,2013-03-09 00:44:00,
2013-03-08 19:49:00,33.9,27.5,30.42,WSW,240,2.0,5.0,77,0.00,,---,0.00,VWS V13.01,2013-03-09 00:49:00,
2013-03-08 19:54:00,33.7,27.6,30.42,WSW,238,1.0,5.0,78,0.00,,---,0.00,VWS V13.01,2013-03-09 00:54:00,
2013-03-08 19:59:00,33.5,27.4,30.42,SSW,206,1.0,5.0,78,0.00,,---,0.00,VWS V13.01,2013-03-09 00:59:00,
2013-03-08 20:04:00,33.4,27.3,30.42,SSW,196,2.0,4.0,78,0.00,,---,0.00,VWS V13.01,2013-03-09 01:04:00,
2013-03-08 20:09:00,33.3,27.2,30.43,SSW,201,3.0,4.0,78,0.00,,---,0.00,VWS V13.01,2013-03-09 01:09:00,
2013-03-08 20:14:00,33.1,27.3,30.43,SSW,206,3.0,4.0,79,0.00,,---,0.00,VWS V13.01,2013-03-09 01:14:00,
2013-03-08 20:19:00,33.0,27.2,30.43,SW,220,3.0,5.0,79,0.00,,---,0.00,VWS V13.01,2013-03-09 01:19:00,
2013-03-08 20:24:00,32.9,27.1,30.43,SSW,209,2.0,5.0,79,0.00,,---,0.00,VWS V13.01,2013-03-09 01:24:00,
2013-03-08 20:29:00,32.7,27.2,30.43,SSW,192,2.0,5.0,80,0.00,,---,0.00,VWS V13.01,2013-03-09 01:29:00,
2013-03-08 20:34:00,32.5,27.0,30.43,South,187,2.0,3.0,80,0.00,,---,0.00,VWS V13.01,2013-03-09 01:34:00,
2013-03-08 20:39:00,32.4,26.9,30.42,SSW,196,3.0,6.0,80,0.00,,---,0.00,VWS V13.01,2013-03-09 01:39:00,
2013-03-08 20:44:00,32.4,26.9,30.42,SSW,201,2.0,6.0,80,0.00,,---,0.00,VWS V13.01,2013-03-09 01:44:00,
2013-03-08 20:49:00,32.3,26.8,30.43,SSW,201,0.0,6.0,80,0.00,,---,0.00,VWS V13.01,2013-03-09 01:49:00,
2013-03-08 20:54:00,32.1,26.6,30.43,SSW,201,1.0,6.0,80,0.00,,---,0.00,VWS V13.01,2013-03-09 01:54:00,
2013-03-08 20:59:00,32.0,26.8,30.43,SSW,203,2.0,6.0,81,0.00,,---,0.00,VWS V13.01,2013-03-09 01:59:00,
2013-03-08 21:04:00,31.9,26.7,30.43,SSW,203,2.0,4.0,81,0.00,,---,0.00,VWS V13.01,2013-03-09 02:04:00,
2013-03-08 21:09:00,31.9,26.7,30.43,SW,221,2.0,5.0,81,0.00,,---,0.00,VWS V13.01,2013-03-09 02:09:00,
2013-03-08 21:14:00,31.7,26.5,30.43,SW,215,1.0,5.0,81,0.00,,---,0.00,VWS V13.01,2013-03-09 02:14:00,
2013-03-08 21:19:00,31.6,26.5,30.42,SW,215,0.0,5.0,81,0.00,,---,0.00,VWS V13.01,2013-03-09 02:19:00,
2013-03-08 21:24:00,31.5,26.4,30.42,SW,214,1.0,5.0,81,0.00,,---,0.00,VWS V13.01,2013-03-09 02:24:00,
2013-03-08 21:29:00,31.4,26.5,30.42,SW,214,0.0,5.0,82,0.00,,---,0.00,VWS V13.01,2013-03-09 02:29:00,
2013-03-08 21:34:00,31.3,26.5,30.42,SW,214,3.0,4.0,82,0.00,,---,0.00,VWS V13.01,2013-03-09 02:34:00,
2013-03-08 21:39:00,31.2,26.4,30.42,SW,219,0.0,4.0,82,0.00,,---,0.00,VWS V13.01,2013-03-09 02:39:00,
2013-03-08 21:44:00,31.1,26.3,30.42,SW,219,0.0,4.0,82,0.00,,---,0.00,VWS V13.01,2013-03-09 02:44:00,
2013-03-08 21:49:00,30.9,26.1,30.42,SW,219,2.0,4.0,82,0.00,,---,0.00,VWS V13.01,2013-03-09 02:49:00,
2013-03-08 21:54:00,30.6,25.8,30.42,SW,219,0.0,4.0,82,0.00,,---,0.00,VWS V13.01,2013-03-09 02:54:00,
2013-03-08 21:59:00,30.3,25.8,30.42,SW,219,2.0,4.0,83,0.00,,---,0.00,VWS V13.01,2013-03-09 02:59:00,
2013-03-08 22:04:00,30.1,25.6,30.42,SW,219,0.0,2.0,83,0.00,,---,0.00,VWS V13.01,2013-03-09 03:04:00,
2013-03-08 22:09:00,29.9,25.4,30.42,SW,219,0.0,2.0,83,0.00,,---,0.00,VWS V13.01,2013-03-09 03:09:00,
2013-03-08 22:14:00,29.6,25.1,30.42,SW,219,1.0,2.0,83,0.00,,---,0.00,VWS V13.01,2013-03-09 03:14:00,
2013-03-08 22:19:00,29.4,25.2,30.42,SW,219,0.0,2.0,84,0.00,,---,0.00,VWS V13.01,2013-03-09 03:19:00,
2013-03-08 22:24:00,29.2,25.0,30.42,SW,219,0.0,2.0,84,0.00,,---,0.00,VWS V13.01,2013-03-09 03:24:00,
2013-03-08 22:29:00,29.0,25.1,30.41,SW,219,0.0,2.0,85,0.00,,---,0.00,VWS V13.01,2013-03-09 03:29:00,
2013-03-08 22:34:00,28.8,24.9,30.42,SW,219,0.0,0.0,85,0.00,,---,0.00,VWS V13.01,2013-03-09 03:34:00,
2013-03-08 22:39:00,28.6,24.7,30.41,SW,219,0.0,0.0,85,0.00,,---,0.00,VWS V13.01,2013-03-09 03:39:00,
2013-03-08 22:44:00,28.4,24.5,30.41,SW,219,0.0,0.0,85,0.00,,---,0.00,VWS V13.01,2013-03-09 03:44:00,
2013-03-08 22:49:00,28.3,24.7,30.42,SW,219,0.0,0.0,86,0.00,,---,0.00,VWS V13.01,2013-03-09 03:49:00,
2013-03-08 22:54:00,28.2,24.6,30.42,SW,219,0.0,1.0,86,0.00,,---,0.00,VWS V13.01,2013-03-09 03:54:00,
2013-03-08 22:59:00,27.9,24.3,30.43,SW,219,0.0,2.0,86,0.00,,---,0.00,VWS V13.01,2013-03-09 03:59:00,
2013-03-08 23:04:00,27.9,24.5,30.42,SW,219,2.0,2.0,87,0.00,,---,0.00,VWS V13.01,2013-03-09 04:04:00,
2013-03-08 23:09:00,27.9,24.8,30.42,SW,219,0.0,2.0,88,0.00,,---,0.00,VWS V13.01,2013-03-09 04:09:00,
2013-03-08 23:14:00,27.9,24.8,30.42,SW,219,1.0,2.0,88,0.00,,---,0.00,VWS V13.01,2013-03-09 04:14:00,
2013-03-08 23:19:00,27.8,24.4,30.42,SW,219,0.0,2.0,87,0.00,,---,0.00,VWS V13.01,2013-03-09 04:19:00,
2013-03-08 23:24:00,27.6,24.5,30.43,SW,219,0.0,2.0,88,0.00,,---,0.00,VWS V13.01,2013-03-09 04:24:00,
2013-03-08 23:29:00,27.5,24.4,30.42,SW,219,0.0,2.0,88,0.00,,---,0.00,VWS V13.01,2013-03-09 04:29:00,
2013-03-08 23:34:00,27.4,24.3,30.42,SW,219,0.0,2.0,88,0.00,,---,0.00,VWS V13.01,2013-03-09 04:34:00,
2013-03-08 23:39:00,27.2,24.1,30.42,SW,219,1.0,2.0,88,0.00,,---,0.00,VWS V13.01,2013-03-09 04:39:00,
2013-03-08 23:44:00,27.3,24.5,30.43,SW,219,0.0,2.0,89,0.00,,---,0.00,VWS V13.01,2013-03-09 04:44:00,
2013-03-08 23:49:00,27.3,24.5,30.43,SW,219,0.0,2.0,89,0.00,,---,0.00,VWS V13.01,2013-03-09 04:49:00,
2013-03-08 23:54:00,27.3,24.5,30.43,SW,219,0.0,2.0,89,0.00,,---,0.00,VWS V13.01,2013-03-09 04:54:00,
2013-03-08 23:59:00,27.2,24.4,30.43,SW,219,0.0,2.0,89,0.00,,---,0.00,VWS V13.01,2013-03-09 04:59:00,